St. James, MN

10:37 AM CDT on May 29, 2017 (GMT -0500)
Saint James Municipal

Weather History for KJYG - August, 2014

Change the Weather History Date:

Wednesday, August 20, 2014

  Actual Average Record
Temperature  
Mean Temperature 73 °F -  
Max Temperature 84 °F 80 °F 95 °F (1972)
Min Temperature 62 °F 57 °F 33 °F (2002)
Cooling Degree Days 8    
Growing Degree Days 23 (Base 50)    
Moisture  
Dew Point 65 °F    
Average Humidity 78    
Maximum Humidity 100    
Minimum Humidity 54    
Precipitation  
Precipitation 0.00 in - - ()
Sea Level Pressure  
Sea Level Pressure 29.84 in    
Wind  
Wind Speed 3 mph (SE)    
Max Wind Speed 14 mph    
Max Gust Speed 18 mph    
Visibility 9 miles    
Events      
Averages and records for this station are not official NWS values.
T = Trace of Precipitation, MM = Missing Value Source: NWS Daily Summary

Daily Weather History Graph

Daily Weather History Graph

Search for Another Location

Airport or City:

Trip Planner

Search our weather history database for the weather conditions in past years. The results will help you decide how hot, cold, wet, or windy it might be!

Date:

Astronomy

Aug. 20, 2014 Rise Set
Actual Time 6:27 AM CDT 8:14 PM CDT
Civil Twilight 5:57 AM CDT 8:45 PM CDT
Nautical Twilight 5:19 AM CDT 9:22 PM CDT
Astronomical Twilight 4:38 AM CDT 10:02 PM CDT
Moon 2:04 AM CDT (8/20) 5:03 PM CDT (8/20)
Length of Visible Light 14h 48m
Length of Day
13h 46m
Waning Crescent, 20% of the Moon is Illuminated
Aug 20
Waning Crescent
Aug 25
New
Sep 2
First Quarter
Sep 8
Full
Sep 15
Last Quarter

Hourly Weather History & Observations

Time (CDT) Temp. Heat Index Dew Point Humidity Pressure Visibility Wind Dir Wind Speed Gust Speed Precip Events Conditions
12:15 AM 66.2 °F - 64.4 °F 94% 29.82 in 10.0 mi Calm Calm - N/A   Clear
12:35 AM 66.2 °F - 62.6 °F 88% 29.83 in 10.0 mi SSW 4.6 mph - N/A   Clear
12:54 AM 66.2 °F - 62.6 °F 88% 29.83 in 10.0 mi Calm Calm - N/A   Scattered Clouds
1:15 AM 66.2 °F - 62.6 °F 88% 29.83 in 10.0 mi SW 3.5 mph - N/A   Clear
1:35 AM 66.2 °F - 62.6 °F 88% 29.83 in 10.0 mi SW 3.5 mph - N/A   Clear
1:55 AM 66.2 °F - 62.6 °F 88% 29.83 in 10.0 mi Calm Calm - N/A   Clear
2:15 AM 64.4 °F - 62.6 °F 94% 29.82 in 10.0 mi Calm Calm - N/A   Clear
2:35 AM 64.4 °F - 62.6 °F 94% 29.82 in 7.0 mi Calm Calm - N/A   Clear
2:55 AM 62.6 °F - 60.8 °F 94% 29.81 in 10.0 mi Calm Calm - N/A   Clear
3:15 AM 62.6 °F - 60.8 °F 94% 29.81 in 4.0 mi Calm Calm - N/A   Clear
3:34 AM 62.6 °F - 60.8 °F 94% 29.82 in 4.0 mi Calm Calm - N/A   Clear
3:55 AM 64.4 °F - 62.6 °F 94% 29.83 in 7.0 mi Calm Calm - N/A   Clear
4:14 AM 62.6 °F - 60.8 °F 94% 29.82 in 7.0 mi Calm Calm - N/A   Clear
4:35 AM 62.6 °F - 60.8 °F 94% 29.81 in 5.0 mi Calm Calm - N/A   Clear
4:55 AM 62.6 °F - 60.8 °F 94% 29.81 in 5.0 mi Calm Calm - N/A   Clear
5:15 AM 62.6 °F - 60.8 °F 94% 29.81 in 5.0 mi Calm Calm - N/A   Clear
5:35 AM 62.6 °F - 60.8 °F 94% 29.81 in 4.0 mi Calm Calm - N/A   Clear
5:55 AM 62.6 °F - 60.8 °F 94% 29.82 in 5.0 mi Calm Calm - N/A   Clear
6:15 AM 62.6 °F - 60.8 °F 94% 29.83 in 4.0 mi Calm Calm - N/A   Clear
6:35 AM 62.6 °F - 62.6 °F 100% 29.85 in 5.0 mi South 4.6 mph - N/A   Clear
6:55 AM 62.6 °F - 60.8 °F 94% 29.85 in 4.0 mi Calm Calm - N/A   Clear
7:15 AM 64.4 °F - 62.6 °F 94% 29.87 in 5.0 mi Calm Calm - N/A   Clear
7:35 AM 64.4 °F - 62.6 °F 94% 29.88 in 5.0 mi SSW 3.5 mph - N/A   Clear
7:55 AM 66.2 °F - 62.6 °F 88% 29.87 in 5.0 mi Calm Calm - N/A   Clear
8:14 AM 66.2 °F - 64.4 °F 94% 29.87 in 4.0 mi Calm Calm - N/A   Clear
8:35 AM 69.8 °F - 64.4 °F 83% 29.86 in 5.0 mi Calm Calm - N/A   Clear
8:55 AM 71.6 °F - 66.2 °F 83% 29.85 in 7.0 mi East 3.5 mph - N/A   Clear
9:15 AM 73.4 °F - 66.2 °F 78% 29.84 in 10.0 mi North - - N/A   Clear
9:55 AM 73.4 °F - 66.2 °F 78% 29.84 in 10.0 mi ESE 4.6 mph - N/A   Clear
10:15 AM 73.4 °F - 66.2 °F 78% 29.82 in 10.0 mi ESE 9.2 mph - N/A   Clear
10:34 AM 73.4 °F - 66.2 °F 78% 29.83 in 10.0 mi ESE 6.9 mph - N/A   Clear
10:55 AM 75.2 °F - 66.2 °F 73% 29.85 in 10.0 mi SE 5.8 mph - N/A   Clear
11:15 AM 77.0 °F - 66.2 °F 69% 29.85 in 10.0 mi SE 4.6 mph - N/A   Clear
11:34 AM 78.8 °F - 66.2 °F 65% 29.86 in 10.0 mi SE 4.6 mph - N/A   Clear
11:49 AM 80.6 °F 82.7 °F 66.2 °F 61% 29.86 in 10.0 mi SSE 9.2 mph - N/A   Clear
12:15 PM 80.6 °F 82.7 °F 66.2 °F 61% 29.86 in 10.0 mi SE 9.2 mph - N/A   Clear
12:18 PM 80.6 °F 82.7 °F 66.2 °F 61% 29.85 in 10.0 mi ESE 6.9 mph - N/A   Clear
12:45 PM 82.4 °F 84.6 °F 66.2 °F 58% 29.86 in 10.0 mi SE 8.1 mph - N/A   Clear
1:15 PM 82.4 °F 83.9 °F 64.4 °F 54% 29.86 in 10.0 mi SE 8.1 mph - N/A   Clear
1:35 PM 82.4 °F 83.9 °F 64.4 °F 54% 29.86 in 10.0 mi SE 11.5 mph 16.1 mph N/A   Clear
1:55 PM 82.4 °F 84.6 °F 66.2 °F 58% 29.85 in 10.0 mi SSE 13.8 mph 18.4 mph N/A   Clear
2:15 PM 82.4 °F 84.6 °F 66.2 °F 58% 29.85 in 10.0 mi SE 9.2 mph - N/A   Clear
3:43 PM 84.2 °F 86.6 °F 66.2 °F 55% 29.83 in 10.0 mi SE 9.2 mph - N/A   Clear
3:48 PM 84.2 °F 86.6 °F 66.2 °F 55% 29.83 in 10.0 mi SE 8.1 mph - N/A   Clear
4:16 PM 84.2 °F 86.6 °F 66.2 °F 55% 29.83 in 10.0 mi SSE 10.4 mph - N/A   Clear
4:30 PM 84.2 °F 86.6 °F 66.2 °F 55% 29.83 in 10.0 mi SE 8.1 mph - N/A   Clear
4:48 PM 84.2 °F 86.6 °F 66.2 °F 55% 29.83 in 10.0 mi SSE 5.8 mph - N/A   Clear
5:15 PM 82.4 °F 85.4 °F 68.0 °F 62% 29.83 in 10.0 mi SSE 5.8 mph - N/A   Clear
5:35 PM 82.4 °F 85.4 °F 68.0 °F 62% 29.83 in 10.0 mi SSE 6.9 mph - N/A   Clear
5:55 PM 82.4 °F 85.4 °F 68.0 °F 62% 29.84 in 10.0 mi SE 6.9 mph - N/A   Clear
6:14 PM 82.4 °F 86.3 °F 69.8 °F 66% 29.83 in 10.0 mi SSE 6.9 mph - N/A   Clear
6:35 PM 80.6 °F 83.2 °F 68.0 °F 65% 29.83 in 10.0 mi SSE 6.9 mph - N/A   Clear
6:55 PM 78.8 °F - 66.2 °F 65% 29.83 in 10.0 mi SE 5.8 mph - N/A   Clear
7:15 PM 78.8 °F - 68.0 °F 69% 29.83 in 10.0 mi SSE 5.8 mph - N/A   Clear
7:35 PM 78.8 °F - 68.0 °F 69% 29.84 in 10.0 mi SSE 6.9 mph - N/A   Clear
7:55 PM 77.0 °F - 68.0 °F 74% 29.82 in 10.0 mi ESE 8.1 mph - N/A   Clear
8:14 PM 75.2 °F - 68.0 °F 78% 29.84 in 10.0 mi SE 5.8 mph - N/A   Scattered Clouds
8:35 PM 75.2 °F - 68.0 °F 78% 29.84 in 10.0 mi SE 4.6 mph - N/A   Clear
8:55 PM 75.2 °F - 68.0 °F 78% 29.85 in 10.0 mi SE 6.9 mph - N/A   Clear
9:15 PM 73.4 °F - 68.0 °F 83% 29.85 in 10.0 mi ESE 4.6 mph - N/A   Clear
9:35 PM 73.4 °F - 68.0 °F 83% 29.85 in 10.0 mi SE 5.8 mph - N/A   Clear
9:55 PM 73.4 °F - 68.0 °F 83% 29.85 in 10.0 mi ESE 4.6 mph - N/A   Clear
10:15 PM 71.6 °F - 66.2 °F 83% 29.85 in 10.0 mi ESE 6.9 mph - N/A   Clear
10:35 PM 73.4 °F - 66.2 °F 78% 29.85 in 10.0 mi ESE 6.9 mph - N/A   Clear
10:55 PM 71.6 °F - 66.2 °F 83% 29.84 in 10.0 mi ESE 6.9 mph - N/A   Clear
11:14 PM 71.6 °F - 68.0 °F 88% 29.83 in 10.0 mi East 8.1 mph - N/A   Clear
11:35 PM 71.6 °F - 66.2 °F 83% 29.83 in 10.0 mi East 6.9 mph - N/A   Clear
11:55 PM 71.6 °F - 66.2 °F 83% 29.83 in 10.0 mi East 8.1 mph - N/A   Clear